Location: N�rnberg
(49.4489°N, 11.0797°E)
Time: 04:28:26
(UTC+01:00)

ISS - Pass Details

Date: 11 February 2018
Orbit: 403 x 407 km, 51.6° (Epoch: 18 February)

Event Time Altitude Azimuth Distance (km) Brightness Sun altitude
Rises 19:24:56 0° 281° (W) 2,321 1.6 -19.4°
Reaches altitude 10° 19:27:53 10° 252° (WSW) 1,457 0.0 -19.9°
Maximum altitude 19:29:25 13° 223° (SW) 1,295 -0.8 -20.1°
Drops below altitude 10° 19:30:58 10° 195° (SSW) 1,453 -0.9 -20.4°
Enters shadow 19:31:51 - 183° (S) 1,657 -0.7 -20.5°
